Scottsbluff, NE

2:17 PM MST on March 01, 2017 (GMT -0700)
Heilig

Weather History for KBFF - January, 2001

Change the Weather History Date:

Saturday, January 13, 2001

  Actual Average Record
Temperature  
Mean Temperature 28 °F 27 °F  
Max Temperature 30 °F 41 °F 66 °F (1902)
Min Temperature 25 °F 14 °F -29 °F (1905)
Degree Days  
Heating Degree Days 38 38  
Month to date heating degree days 499  
Since 1 July heating degree days 3271  
Cooling Degree Days 0 0  
Month to date cooling degree days 0  
Year to date cooling degree days 0  
Moisture  
Dew Point 21 °F    
Average Humidity 74    
Maximum Humidity 85    
Minimum Humidity 64    
Precipitation  
Precipitation 0.00 in 0.01 in 0.09 in (1957)
Month to date precipitation 0.17  
Year to date precipitation 0.17  
Sea Level Pressure  
Sea Level Pressure 29.81 in    
Wind  
Wind Speed 16 mph (NW)    
Max Wind Speed 32 mph    
Max Gust Speed 39 mph    
Visibility 10 miles    
Events      
T = Trace of Precipitation, MM = Missing Value Source: NWS Daily Summary

Daily Weather History Graph

Daily Weather History Graph

Search for Another Location

Airport or City:

Trip Planner

Search our weather history database for the weather conditions in past years. The results will help you decide how hot, cold, wet, or windy it might be!

Date:

Astronomy

Jan. 13, 2001 Rise Set
Actual Time 7:20 AM MST 4:46 PM MST
Civil Twilight 6:49 AM MST 5:17 PM MST
Nautical Twilight 6:14 AM MST 5:51 PM MST
Astronomical Twilight 5:41 AM MST 6:25 PM MST
Moon 9:42 PM MST (1/13) 10:15 AM MST (1/13)
Length of Visible Light 10h 27m
Length of Day
9h 26m
Waning Gibbous, 79% of the Moon is Illuminated
Jan 13
Waning Gibbous
Jan 16
Last Quarter
Jan 24
New
Feb 1
First Quarter
Feb 8
Full

Hourly Weather History & Observations

Time (MST) Temp. Windchill Dew Point Humidity Pressure Visibility Wind Dir Wind Speed Gust Speed Precip Events Conditions
12:54 AM 25.0 °F 14.8 °F 19.9 °F 81% 29.63 in 10.0 mi NW 10.4 mph - N/A   Clear
1:54 AM 26.1 °F 16.2 °F 19.9 °F 78% 29.62 in 10.0 mi NW 10.4 mph - N/A   Clear
2:54 AM 25.0 °F 14.8 °F 19.9 °F 81% 29.63 in 10.0 mi WNW 10.4 mph - N/A   Clear
3:54 AM 26.1 °F 15.0 °F 21.0 °F 81% 29.64 in 10.0 mi NW 12.7 mph - N/A   Clear
4:54 AM 28.9 °F 17.7 °F 24.1 °F 82% 29.66 in 10.0 mi NNW 15.0 mph - N/A   Clear
5:13 AM 30.2 °F 19.8 °F 24.8 °F 80% 29.62 in 10.0 mi NNW 13.8 mph 23.0 mph N/A   Mostly Cloudy
5:54 AM 28.9 °F 18.6 °F 24.1 °F 82% 29.69 in 10.0 mi NW 12.7 mph - N/A   Overcast
6:54 AM 28.0 °F 15.7 °F 23.0 °F 81% 29.71 in 10.0 mi NNW 17.3 mph - N/A   Overcast
7:54 AM 28.9 °F 18.6 °F 23.0 °F 78% 29.76 in 9.0 mi NNW 12.7 mph - N/A   Overcast
8:37 AM 28.4 °F 17.0 °F 23.0 °F 80% 29.71 in 8.0 mi NNW 15.0 mph - N/A   Overcast
8:54 AM 28.0 °F 16.1 °F 23.0 °F 81% 29.82 in 8.0 mi NNW 16.1 mph - N/A   Overcast
9:54 AM 28.0 °F 16.1 °F 24.1 °F 85% 29.86 in 5.0 mi NNW 16.1 mph - N/A   Overcast
10:54 AM 28.9 °F 17.3 °F 24.1 °F 82% 29.86 in 8.0 mi NNW 16.1 mph - N/A   Overcast
11:54 AM 28.0 °F 13.0 °F 23.0 °F 81% 29.84 in 8.0 mi NNW 26.5 mph 32.2 mph N/A   Overcast
12:39 PM 28.4 °F 13.0 °F 21.2 °F 74% 29.74 in 10.0 mi NNW 28.8 mph 39.1 mph N/A   Overcast
12:54 PM 28.9 °F 14.3 °F 21.9 °F 75% 29.83 in 10.0 mi NW 26.5 mph 34.5 mph N/A   Overcast
1:54 PM 30.0 °F 14.5 °F 21.0 °F 69% 29.83 in 10.0 mi NW 32.2 mph 39.1 mph N/A   Overcast
2:54 PM 30.9 °F 17.8 °F 19.9 °F 64% 29.86 in 10.0 mi NNW 23.0 mph 34.5 mph N/A   Overcast
3:23 PM 30.2 °F 16.2 °F 19.4 °F 64% 29.79 in 10.0 mi NW 25.3 mph 36.8 mph N/A   Overcast
3:54 PM 30.0 °F 15.2 °F 19.9 °F 66% 29.88 in 10.0 mi NW 28.8 mph 34.5 mph N/A   Overcast
4:06 PM 30.2 °F 16.2 °F 19.4 °F 64% 29.80 in 10.0 mi NW 25.3 mph 34.5 mph N/A   Overcast
4:54 PM 30.0 °F 15.7 °F 19.9 °F 66% 29.89 in 10.0 mi NW 26.5 mph 36.8 mph N/A   Overcast
5:54 PM 30.0 °F 16.0 °F 19.9 °F 66% 29.93 in 10.0 mi NNW 25.3 mph 34.5 mph N/A   Overcast
6:11 PM 28.4 °F 14.7 °F 19.4 °F 69% 29.86 in 10.0 mi NNW 21.9 mph 31.1 mph N/A   Overcast
6:54 PM 30.0 °F 18.7 °F 21.0 °F 69% 29.96 in 10.0 mi NNW 16.1 mph - N/A   Overcast
7:02 PM 30.2 °F 19.3 °F 21.2 °F 69% 29.88 in 10.0 mi NNW 15.0 mph - N/A   Overcast
7:54 PM 30.0 °F 17.9 °F 21.0 °F 69% 29.95 in 10.0 mi NNW 18.4 mph 24.2 mph N/A   Overcast
8:54 PM 28.0 °F 17.5 °F 21.0 °F 75% 29.97 in 10.0 mi NW 12.7 mph - N/A   Overcast
9:54 PM 30.0 °F 16.6 °F 21.0 °F 69% 29.97 in 10.0 mi NW 23.0 mph 27.6 mph N/A   Overcast
10:54 PM 30.0 °F 20.0 °F 21.0 °F 69% 29.99 in 10.0 mi NW 12.7 mph - N/A   Overcast
11:54 PM 28.9 °F 16.9 °F 21.0 °F 72% 29.99 in 10.0 mi NNW 17.3 mph 21.9 mph N/A   Overcast